Weather History for K04W - November, 2012

Change the Weather History Date:

Saturday, November 10, 2012

  Actual Average (KJMR) Record (KJMR)
Temperature  
Mean Temperature 45 °F -  
Max Temperature 55 °F 38 °F 64 °F (2010)
Min Temperature 35 °F 21 °F -7 °F (1986)
Degree Days  
Heating Degree Days 20    
Moisture  
Dew Point 40 °F    
Average Humidity 96    
Maximum Humidity 100    
Minimum Humidity 87    
Precipitation  
Precipitation 0.00 in - - ()
Sea Level Pressure  
Sea Level Pressure 29.70 in    
Wind  
Wind Speed 10 mph (ENE)    
Max Wind Speed 15 mph    
Max Gust Speed 25 mph    
Visibility 5 miles    
Events Rain , Snow , Thunderstorm    
Averages and records for this station are not official NWS values.
T = Trace of Precipitation, MM = Missing Value Source: NWS Daily Summary

Daily Weather History Graph

Daily Weather History Graph

Search for Another Location

Airport or City:

Trip Planner

Search our weather history database for the weather conditions in past years. The results will help you decide how hot, cold, wet, or windy it might be!

Date:

Astronomy

Nov. 10, 2012 Rise Set
Actual Time 7:05 AM CST 4:44 PM CST
Civil Twilight 6:33 AM CST 5:16 PM CST
Nautical Twilight 5:57 AM CST 5:52 PM CST
Astronomical Twilight 5:22 AM CST 6:27 PM CST
Moon 3:00 AM CST (11/10) 2:41 PM CST (11/10)
Length of Visible Light 10h 43m
Length of Day
9h 39m
Waning Crescent, 14% of the Moon is Illuminated
Nov 10
Waning Crescent
Nov 13
New
Nov 20
First Quarter
Nov 28
Full
Dec 6
Last Quarter

Hourly Weather History & Observations

Time (CST) Temp. Windchill Dew Point Humidity Pressure Visibility Wind Dir Wind Speed Gust Speed Precip Events Conditions
12:15 AM 37.4 °F 30.3 °F 33.8 °F 87% 29.99 in 10.0 mi ENE 10.4 mph 18.4 mph N/A   Overcast
12:35 AM 37.4 °F 29.8 °F 33.8 °F 87% 29.99 in 10.0 mi ENE 11.5 mph 16.1 mph N/A   Overcast
12:55 AM 37.4 °F 29.8 °F 33.8 °F 87% 29.98 in 10.0 mi ENE 11.5 mph 17.3 mph N/A   Overcast
1:15 AM 37.4 °F 30.8 °F 33.8 °F 87% 29.97 in 10.0 mi ENE 9.2 mph - N/A   Overcast
1:35 AM 37.4 °F 28.9 °F 33.8 °F 87% 29.95 in 10.0 mi East 13.8 mph 23.0 mph N/A   Overcast
1:55 AM 37.4 °F 29.8 °F 33.8 °F 87% 29.94 in 10.0 mi ENE 11.5 mph 23.0 mph N/A   Overcast
2:15 AM 37.4 °F 30.3 °F 33.8 °F 87% 29.94 in 10.0 mi ENE 10.4 mph 19.6 mph N/A   Overcast
2:35 AM 37.4 °F 29.3 °F 33.8 °F 87% 29.93 in 10.0 mi ENE 12.7 mph 17.3 mph N/A   Overcast
2:55 AM 37.4 °F 29.3 °F 33.8 °F 87% 29.92 in 10.0 mi ENE 12.7 mph 20.7 mph N/A   Overcast
3:15 AM 37.4 °F 28.5 °F 33.8 °F 87% 29.91 in 10.0 mi ENE 15.0 mph 20.7 mph N/A   Overcast
3:55 AM 37.4 °F 30.3 °F 33.8 °F 87% 29.89 in 10.0 mi ENE 10.4 mph 18.4 mph N/A   Overcast
4:15 AM 35.6 °F 26.2 °F 33.8 °F 93% 29.88 in 10.0 mi ENE 15.0 mph 20.7 mph N/A   Overcast
4:35 AM 35.6 °F 28.6 °F 32.0 °F 87% 29.89 in 10.0 mi ENE 9.2 mph 17.3 mph N/A   Overcast
4:55 AM 35.6 °F 27.5 °F 33.8 °F 93% 29.87 in 10.0 mi ENE 11.5 mph 17.3 mph N/A   Overcast
5:35 AM 35.6 °F 27.5 °F 33.8 °F 93% 29.86 in 10.0 mi ENE 11.5 mph 16.1 mph N/A   Overcast
5:55 AM 35.6 °F 27.5 °F 33.8 °F 93% 29.84 in 5.0 mi ENE 11.5 mph - N/A   Overcast
6:15 AM 35.6 °F 29.2 °F 33.8 °F 93% 29.84 in 4.0 mi ENE 8.1 mph - N/A   Light Drizzle
6:35 AM 35.6 °F 29.2 °F 35.6 °F 100% 29.84 in 5.0 mi ENE 8.1 mph - N/A Rain Light Rain
6:55 AM 35.6 °F 28.6 °F 35.6 °F 100% 29.83 in 10.0 mi ENE 9.2 mph 16.1 mph N/A   Overcast
7:15 AM 35.6 °F 27.1 °F 33.8 °F 93% 29.81 in 10.0 mi ENE 12.7 mph - N/A   Overcast
7:35 AM 35.6 °F 27.1 °F 33.8 °F 93% 29.81 in 7.0 mi ENE 12.7 mph 17.3 mph N/A   Overcast
7:55 AM 35.6 °F 27.5 °F 35.6 °F 100% 29.80 in 7.0 mi East 11.5 mph 16.1 mph N/A Thunderstorm Overcast
8:15 AM 35.6 °F 28.0 °F 35.6 °F 100% 29.79 in 2.5 mi ENE 10.4 mph 17.3 mph N/A Rain Light Rain
8:35 AM 35.6 °F 27.5 °F 35.6 °F 100% 29.78 in 2.5 mi East 11.5 mph 18.4 mph N/A Rain Light Rain
8:55 AM 35.6 °F 28.0 °F 35.6 °F 100% 29.78 in 2.5 mi East 10.4 mph - N/A Thunderstorm Overcast
9:35 AM 35.6 °F 28.6 °F 35.6 °F 100% 29.75 in 1.5 mi East 9.2 mph - N/A   Light Drizzle
9:55 AM 35.6 °F 27.1 °F 35.6 °F 100% 29.74 in 2.0 mi East 12.7 mph 17.3 mph N/A   Light Drizzle
10:15 AM 37.4 °F 29.3 °F 35.6 °F 93% 29.73 in 2.0 mi East 12.7 mph - N/A Snow Light Snow
10:35 AM 37.4 °F 30.3 °F 37.4 °F 100% 29.72 in 1.8 mi East 10.4 mph 16.1 mph N/A Rain Light Rain
11:15 AM 37.4 °F 29.8 °F 37.4 °F 100% 29.69 in 2.5 mi East 11.5 mph - N/A   Light Drizzle
11:35 AM 37.4 °F 30.8 °F 37.4 °F 100% 29.68 in 3.0 mi East 9.2 mph - N/A   Overcast
11:55 AM 39.2 °F 33.0 °F 37.4 °F 93% 29.66 in 2.5 mi East 9.2 mph - N/A   Overcast
12:15 PM 39.2 °F 32.5 °F 39.2 °F 100% 29.65 in 1.8 mi ENE 10.4 mph - N/A   Overcast
12:35 PM 39.2 °F 33.0 °F 39.2 °F 100% 29.64 in 1.5 mi ENE 9.2 mph - N/A   Overcast
1:15 PM 41.0 °F 35.8 °F 41.0 °F 100% 29.62 in 1.5 mi ENE 8.1 mph - N/A   Light Drizzle
1:35 PM 41.0 °F 35.8 °F 41.0 °F 100% 29.63 in 1.8 mi East 8.1 mph - N/A   Overcast
1:55 PM 41.0 °F 35.2 °F 41.0 °F 100% 29.62 in 1.5 mi ENE 9.2 mph - N/A   Drizzle
2:15 PM 41.0 °F 35.2 °F 41.0 °F 100% 29.61 in 2.0 mi ENE 9.2 mph - N/A   Light Drizzle
2:35 PM 41.0 °F 35.8 °F 41.0 °F 100% 29.60 in 1.5 mi ENE 8.1 mph - N/A   Overcast
3:15 PM 41.0 °F 36.4 °F 41.0 °F 100% 29.59 in 2.5 mi ENE 6.9 mph - N/A   Overcast
3:35 PM 41.0 °F 36.4 °F 41.0 °F 100% 29.59 in 2.0 mi ENE 6.9 mph - N/A   Overcast
3:55 PM 41.0 °F 35.8 °F 41.0 °F 100% 29.58 in 1.2 mi ENE 8.1 mph - N/A   Overcast
4:15 PM 42.8 °F 37.5 °F 42.8 °F 100% 29.57 in 0.8 mi ENE 9.2 mph - N/A   Overcast
4:35 PM 42.8 °F 38.0 °F 42.8 °F 100% 29.57 in 0.8 mi ENE 8.1 mph - N/A   Overcast
4:55 PM 42.8 °F 38.0 °F 42.8 °F 100% 29.56 in 0.8 mi ENE 8.1 mph - N/A   Overcast
5:35 PM 44.6 °F 39.7 °F 44.6 °F 100% 29.56 in 1.8 mi ENE 9.2 mph - N/A   Overcast
5:55 PM 44.6 °F 41.4 °F 44.6 °F 100% 29.56 in 1.8 mi ENE 5.8 mph - N/A   Overcast
6:15 PM 44.6 °F 40.7 °F 44.6 °F 100% 29.55 in 1.5 mi ENE 6.9 mph - N/A   Overcast
6:35 PM 44.6 °F 39.7 °F 44.6 °F 100% 29.55 in 1.5 mi ENE 9.2 mph - N/A   Overcast
6:55 PM 44.6 °F 40.7 °F 44.6 °F 100% 29.54 in 1.5 mi East 6.9 mph - N/A   Overcast
7:15 PM 44.6 °F 40.7 °F 44.6 °F 100% 29.55 in 1.8 mi East 6.9 mph - N/A   Overcast
7:35 PM 44.6 °F 40.2 °F 44.6 °F 100% 29.53 in 1.8 mi ENE 8.1 mph - N/A   Overcast
7:55 PM 44.6 °F 41.4 °F 44.6 °F 100% 29.52 in 2.0 mi ENE 5.8 mph - N/A   Overcast
8:35 PM 46.4 °F 41.9 °F 46.4 °F 100% 29.48 in 2.5 mi East 9.2 mph - N/A   Overcast
9:15 PM 48.2 °F - 48.2 °F 100% 29.47 in 4.0 mi East 8.1 mph - N/A   Overcast
9:35 PM 50.0 °F - 48.2 °F 94% 29.47 in 5.0 mi East 6.9 mph - N/A   Overcast
9:55 PM 50.0 °F - 50.0 °F 100% 29.47 in 5.0 mi East 4.6 mph - N/A   Overcast
10:35 PM 53.6 °F - 51.8 °F 94% 29.44 in 7.0 mi ESE 8.1 mph - N/A   Overcast
10:55 PM 55.4 °F - 51.8 °F 88% 29.49 in 10.0 mi WSW 10.4 mph 25.3 mph N/A   Overcast
11:15 PM 53.6 °F - 51.8 °F 94% 29.50 in 10.0 mi West 5.8 mph - N/A   Overcast
11:35 PM 53.6 °F - 50.0 °F 88% 29.49 in 10.0 mi West 9.2 mph - N/A Rain Light Rain
11:55 PM 53.6 °F - 50.0 °F 88% 29.52 in 10.0 mi WSW 10.4 mph - N/A Rain , Thunderstorm Light Thunderstorms and Rain